TimeCDT,TemperatureF,Dew PointF,Humidity,Sea Level PressureIn,VisibilityMPH,Wind Direction,Wind SpeedMPH,Gust SpeedMPH,PrecipitationIn,Events,Conditions,WindDirDegrees,DateUTC
12:15 AM,43.7,36.9,77,29.96,10.0,WNW,10.4,18.4,N/A,,Clear,290,2012-10-10 05:15:00
12:35 AM,42.8,36.5,78,29.97,10.0,WNW,11.5,-,N/A,,Clear,300,2012-10-10 05:35:00
12:55 AM,42.3,35.2,76,29.97,10.0,WNW,8.1,-,N/A,,Clear,300,2012-10-10 05:55:00
1:15 AM,41.9,33.8,73,29.98,10.0,WNW,8.1,-,N/A,,Clear,300,2012-10-10 06:15:00
1:35 AM,41.2,34.5,77,29.99,10.0,West,5.8,-,N/A,,Clear,280,2012-10-10 06:35:00
1:55 AM,40.6,33.8,77,29.99,10.0,West,9.2,-,N/A,,Clear,280,2012-10-10 06:55:00
2:15 AM,40.1,32.9,75,30.00,10.0,WNW,10.4,-,N/A,,Clear,290,2012-10-10 07:15:00
2:35 AM,39.6,32.4,75,30.00,10.0,West,6.9,-,N/A,,Clear,280,2012-10-10 07:35:00
2:55 AM,38.7,32.0,77,30.00,10.0,WNW,4.6,-,N/A,,Clear,290,2012-10-10 07:55:00
3:15 AM,38.3,32.0,78,30.00,10.0,West,6.9,-,N/A,,Clear,280,2012-10-10 08:15:00
3:35 AM,37.8,32.0,80,30.00,10.0,WNW,8.1,-,N/A,,Clear,300,2012-10-10 08:35:00
3:55 AM,37.8,31.8,79,30.01,10.0,West,6.9,-,N/A,,Clear,270,2012-10-10 08:55:00
4:15 AM,37.4,31.6,80,30.02,10.0,West,8.1,-,N/A,,Clear,270,2012-10-10 09:15:00
4:35 AM,36.9,31.1,80,30.02,10.0,West,8.1,-,N/A,,Clear,270,2012-10-10 09:35:00
4:55 AM,36.9,31.1,80,30.04,10.0,West,6.9,-,N/A,,Clear,270,2012-10-10 09:55:00
5:15 AM,36.3,30.9,81,30.04,10.0,WNW,6.9,-,N/A,,Clear,290,2012-10-10 10:15:00
5:35 AM,36.5,30.9,80,30.05,10.0,West,9.2,-,N/A,,Clear,270,2012-10-10 10:35:00
5:55 AM,36.0,30.6,81,30.06,10.0,West,8.1,-,N/A,,Clear,260,2012-10-10 10:55:00
6:15 AM,35.8,30.0,80,30.07,10.0,West,10.4,-,N/A,,Clear,270,2012-10-10 11:15:00
6:35 AM,35.8,30.0,80,30.08,10.0,West,8.1,-,N/A,,Clear,270,2012-10-10 11:35:00
6:55 AM,35.6,29.3,78,30.09,10.0,West,10.4,-,N/A,,Clear,270,2012-10-10 11:55:00
7:15 AM,34.9,29.3,80,30.10,10.0,West,10.4,-,N/A,,Clear,270,2012-10-10 12:15:00
7:35 AM,34.9,29.3,80,30.10,10.0,West,9.2,-,N/A,,Clear,270,2012-10-10 12:35:00
7:55 AM,35.6,29.7,79,30.12,10.0,WNW,6.9,-,N/A,,Clear,290,2012-10-10 12:55:00
8:35 AM,36.7,28.9,74,30.14,10.0,WNW,11.5,16.1,N/A,,Clear,290,2012-10-10 13:35:00
8:55 AM,37.4,29.3,73,30.15,10.0,WNW,8.1,-,N/A,,Clear,300,2012-10-10 13:55:00
9:15 AM,38.8,30.0,71,30.15,10.0,West,8.1,-,N/A,,Clear,270,2012-10-10 14:15:00
9:35 AM,40.3,29.8,66,30.15,10.0,West,9.2,-,N/A,,Scattered Clouds,280,2012-10-10 14:35:00
9:55 AM,41.9,30.2,63,30.16,10.0,WNW,9.2,-,N/A,,Mostly Cloudy,290,2012-10-10 14:55:00
10:15 AM,43.0,29.8,60,30.16,10.0,WNW,9.2,-,N/A,,Overcast,290,2012-10-10 15:15:00
10:35 AM,44.2,29.3,56,30.16,10.0,WNW,10.4,16.1,N/A,,Scattered Clouds,300,2012-10-10 15:35:00
10:55 AM,45.3,29.3,54,30.16,10.0,WNW,9.2,-,N/A,,Clear,300,2012-10-10 15:55:00
11:15 AM,46.4,29.5,52,30.17,10.0,WNW,9.2,-,N/A,,Clear,300,2012-10-10 16:15:00
11:55 AM,48.6,29.5,48,30.16,10.0,West,11.5,17.3,N/A,,Scattered Clouds,270,2012-10-10 16:55:00
12:15 PM,49.5,29.7,47,30.16,10.0,West,11.5,-,N/A,,Scattered Clouds,270,2012-10-10 17:15:00
12:35 PM,48.0,29.7,49,30.16,10.0,West,8.1,19.6,N/A,,Scattered Clouds,280,2012-10-10 17:35:00
12:55 PM,49.8,30.2,47,30.16,10.0,WNW,9.2,-,N/A,,Mostly Cloudy,290,2012-10-10 17:55:00
1:15 PM,50.9,28.9,43,30.15,10.0,West,13.8,21.9,N/A,,Mostly Cloudy,280,2012-10-10 18:15:00
1:35 PM,52.3,30.0,42,30.15,10.0,West,11.5,18.4,N/A,,Mostly Cloudy,260,2012-10-10 18:35:00
1:55 PM,52.9,30.0,42,30.14,10.0,West,11.5,16.1,N/A,,Scattered Clouds,270,2012-10-10 18:55:00
2:15 PM,52.5,29.8,42,30.14,10.0,West,10.4,17.3,N/A,,Mostly Cloudy,280,2012-10-10 19:15:00
2:35 PM,52.7,29.5,41,30.14,10.0,WNW,9.2,18.4,N/A,,Mostly Cloudy,290,2012-10-10 19:35:00
2:55 PM,54.1,29.1,38,30.14,10.0,West,10.4,16.1,N/A,,Mostly Cloudy,280,2012-10-10 19:55:00
3:15 PM,51.8,27.9,40,30.14,10.0,West,11.5,17.3,N/A,,Scattered Clouds,280,2012-10-10 20:15:00
3:35 PM,53.2,28.4,38,30.13,10.0,West,10.4,-,N/A,,Scattered Clouds,280,2012-10-10 20:35:00
3:55 PM,53.4,27.9,37,30.13,10.0,West,15.0,21.9,N/A,,Scattered Clouds,280,2012-10-10 20:55:00
4:15 PM,53.1,25.5,34,30.13,10.0,WNW,11.5,17.3,N/A,,Scattered Clouds,290,2012-10-10 21:15:00
4:35 PM,52.9,25.5,35,30.13,10.0,West,10.4,-,N/A,,Clear,270,2012-10-10 21:35:00
4:55 PM,52.7,25.0,34,30.13,10.0,West,9.2,17.3,N/A,,Clear,270,2012-10-10 21:55:00
5:15 PM,52.5,25.2,35,30.13,10.0,West,10.4,-,N/A,,Clear,280,2012-10-10 22:15:00
5:35 PM,52.0,25.2,35,30.13,10.0,WNW,13.8,-,N/A,,Clear,290,2012-10-10 22:35:00
5:55 PM,51.3,24.6,35,30.13,10.0,West,8.1,-,N/A,,Clear,280,2012-10-10 22:55:00
6:15 PM,50.5,26.1,39,30.13,10.0,West,6.9,-,N/A,,Clear,270,2012-10-10 23:15:00
6:35 PM,49.5,27.1,42,30.14,10.0,West,3.5,-,N/A,,Clear,270,2012-10-10 23:35:00
7:15 PM,48.0,28.8,47,30.15,10.0,Calm,Calm,-,N/A,,Clear,0,2012-10-11 00:15:00
7:35 PM,44.1,29.3,56,30.15,10.0,SSW,3.5,-,N/A,,Clear,200,2012-10-11 00:35:00
7:55 PM,39.6,29.1,66,30.15,10.0,Calm,Calm,-,N/A,,Clear,0,2012-10-11 00:55:00
8:15 PM,39.4,28.6,65,30.15,10.0,SE,4.6,-,N/A,,Clear,140,2012-10-11 01:15:00
8:35 PM,36.7,29.1,74,30.15,10.0,Calm,Calm,-,N/A,,Clear,0,2012-10-11 01:35:00
8:55 PM,36.9,29.3,74,30.15,10.0,SE,4.6,-,N/A,,Clear,140,2012-10-11 01:55:00
9:15 PM,35.6,29.1,77,30.15,10.0,SE,3.5,-,N/A,,Clear,140,2012-10-11 02:15:00
9:35 PM,34.2,29.1,82,30.15,10.0,SSE,4.6,-,N/A,,Clear,150,2012-10-11 02:35:00
9:55 PM,34.7,29.1,80,30.14,10.0,SSE,5.8,-,N/A,,Clear,160,2012-10-11 02:55:00
10:15 PM,35.6,28.9,77,30.14,10.0,South,6.9,-,N/A,,Clear,170,2012-10-11 03:15:00
10:35 PM,36.0,28.2,73,30.14,10.0,South,3.5,-,N/A,,Clear,170,2012-10-11 03:35:00
10:55 PM,36.3,28.2,72,30.14,10.0,SSE,4.6,-,N/A,,Clear,150,2012-10-11 03:55:00
11:15 PM,33.4,28.0,81,30.14,10.0,SSE,4.6,-,N/A,,Clear,160,2012-10-11 04:15:00
11:35 PM,33.4,28.0,81,30.14,10.0,Calm,Calm,-,N/A,,Clear,0,2012-10-11 04:35:00
11:55 PM,33.1,28.0,82,30.14,10.0,SSE,3.5,-,N/A,,Clear,150,2012-10-11 04:55:00